Olive Branch, MS

2:58 AM CDT on May 27, 2017 (GMT -0500)
Olive Branch

Weather History for KOLV - September, 2013

Change the Weather History Date:

Wednesday, September 11, 2013

  Actual Average (KMEM) Record (KMEM)
Temperature  
Mean Temperature 81 °F -  
Max Temperature 91 °F 85 °F 96 °F (1983)
Min Temperature 71 °F 66 °F 47 °F (1940)
Cooling Degree Days 16    
Growing Degree Days 31 (Base 50)    
Moisture  
Dew Point 72 °F    
Average Humidity 87    
Maximum Humidity 100    
Minimum Humidity 46    
Precipitation  
Precipitation 0.00 in - - ()
Sea Level Pressure  
Sea Level Pressure 30.13 in    
Wind  
Wind Speed 1 mph (SSE)    
Max Wind Speed 7 mph    
Max Gust Speed -    
Visibility 8 miles    
Events      
Averages and records for this station are not official NWS values.
T = Trace of Precipitation, MM = Missing Value Source: NWS Daily Summary

Daily Weather History Graph

Daily Weather History Graph

Search for Another Location

Airport or City:

Trip Planner

Search our weather history database for the weather conditions in past years. The results will help you decide how hot, cold, wet, or windy it might be!

Date:

Astronomy

Sep. 11, 2013 Rise Set
Actual Time 6:39 AM CDT 7:11 PM CDT
Civil Twilight 6:13 AM CDT 7:36 PM CDT
Nautical Twilight 5:43 AM CDT 8:06 PM CDT
Astronomical Twilight 5:13 AM CDT 8:37 PM CDT
Moon 12:52 PM CDT (9/11) 11:22 PM CDT (9/11)
Length of Visible Light 13h 22m
Length of Day
12h 32m
Waxing Crescent, 39% of the Moon is Illuminated
Sep 11
Waxing Crescent
Sep 12
First Quarter
Sep 19
Full
Sep 26
Last Quarter
Oct 4
New

Hourly Weather History & Observations

Time (CDT) Temp. Heat Index Dew Point Humidity Pressure Visibility Wind Dir Wind Speed Gust Speed Precip Events Conditions
12:15 AM 75.2 °F - 75.2 °F 100% 30.12 in 10.0 mi Calm Calm - 0.00 in   Clear
12:35 AM 73.4 °F - 73.4 °F 100% 30.12 in 8.0 mi Calm Calm - 0.00 in   Clear
12:55 AM 73.4 °F - 73.4 °F 100% 30.12 in 9.0 mi Calm Calm - 0.00 in   Clear
1:15 AM 73.4 °F - 73.4 °F 100% 30.12 in 10.0 mi Calm Calm - 0.00 in   Clear
1:35 AM 73.4 °F - 73.4 °F 100% 30.12 in 7.0 mi Calm Calm - 0.00 in   Clear
1:55 AM 73.4 °F - 73.4 °F 100% 30.12 in 8.0 mi Calm Calm - 0.00 in   Clear
2:15 AM 73.4 °F - 73.4 °F 100% 30.13 in 8.0 mi Calm Calm - 0.00 in   Clear
2:35 AM 73.4 °F - 73.4 °F 100% 30.13 in 8.0 mi Calm Calm - 0.00 in   Clear
2:55 AM 73.4 °F - 73.4 °F 100% 30.13 in 7.0 mi Calm Calm - 0.00 in   Clear
3:15 AM 71.6 °F - 71.6 °F 100% 30.13 in 5.0 mi SSE 3.5 mph - 0.00 in   Clear
3:35 AM 71.6 °F - 71.6 °F 100% 30.13 in 7.0 mi Calm Calm - 0.00 in   Clear
3:55 AM 73.4 °F - 73.4 °F 100% 30.14 in 7.0 mi South 3.5 mph - 0.00 in   Clear
4:15 AM 71.6 °F - 71.6 °F 100% 30.14 in 5.0 mi South 5.8 mph - 0.00 in   Partly Cloudy
4:35 AM 73.4 °F - 73.4 °F 100% 30.14 in 5.0 mi South 3.5 mph - 0.00 in   Mostly Cloudy
4:55 AM 71.6 °F - 71.6 °F 100% 30.14 in 6.0 mi Calm Calm - 0.00 in   Mostly Cloudy
5:15 AM 73.4 °F - 73.4 °F 100% 30.15 in 6.0 mi Calm Calm - 0.00 in   Clear
5:35 AM 73.4 °F - 73.4 °F 100% 30.15 in 6.0 mi Calm Calm - 0.00 in   Clear
5:55 AM 71.6 °F - 71.6 °F 100% 30.15 in 5.0 mi Calm Calm - 0.00 in   Clear
6:15 AM 71.6 °F - 71.6 °F 100% 30.16 in 6.0 mi Calm Calm - 0.00 in   Clear
6:35 AM 71.6 °F - 71.6 °F 100% 30.17 in 4.0 mi Calm Calm - 0.00 in   Clear
6:50 AM 71.6 °F - 71.6 °F 100% 30.17 in 6.0 mi Calm Calm - N/A   Scattered Clouds
7:50 AM 71.6 °F - 71.6 °F 100% 30.18 in 5.0 mi Calm Calm - N/A   Mostly Cloudy
8:50 AM 75.2 °F - 73.4 °F 94% 30.18 in 8.0 mi South 5.8 mph - N/A   Mostly Cloudy
9:50 AM 80.6 °F 86.2 °F 75.2 °F 84% 30.18 in 8.0 mi South 6.9 mph - N/A   Mostly Cloudy
10:50 AM 84.2 °F 92.3 °F 75.2 °F 74% 30.18 in 8.0 mi South 6.9 mph - N/A   Mostly Cloudy
11:50 AM 86.0 °F 93.4 °F 73.4 °F 66% 30.17 in 8.0 mi South 6.9 mph - N/A   Mostly Cloudy
12:50 PM 89.6 °F 96.2 °F 71.6 °F 55% 30.16 in 8.0 mi SSW 4.6 mph - N/A   Mostly Cloudy
1:50 PM 89.6 °F 96.2 °F 71.6 °F 55% 30.13 in 8.0 mi East 4.6 mph - N/A   Mostly Cloudy
2:50 PM 91.4 °F 96.8 °F 69.8 °F 49% 30.11 in 8.0 mi SSE 3.5 mph - N/A   Mostly Cloudy
3:50 PM 91.4 °F 95.4 °F 68.0 °F 46% 30.08 in 10.0 mi Calm Calm - N/A   Scattered Clouds
4:50 PM 91.4 °F 95.4 °F 68.0 °F 46% 30.08 in 10.0 mi Calm Calm - N/A   Mostly Cloudy
5:50 PM 87.8 °F 90.4 °F 66.2 °F 49% 30.08 in 10.0 mi SSE 4.6 mph - N/A   Mostly Cloudy
6:50 PM 84.2 °F 88.4 °F 69.8 °F 62% 30.08 in 10.0 mi SE 4.6 mph - N/A   Mostly Cloudy
7:50 PM 82.4 °F 87.2 °F 71.6 °F 70% 30.09 in 10.0 mi Calm Calm - N/A   Mostly Cloudy
8:55 PM 78.8 °F - 73.4 °F 83% 30.09 in 10.0 mi Calm Calm - 0.00 in   Clear
9:15 PM 80.6 °F 85.4 °F 73.4 °F 79% 30.10 in 9.0 mi Calm Calm - 0.00 in   Clear
9:35 PM 78.8 °F - 73.4 °F 83% 30.09 in 10.0 mi Calm Calm - 0.00 in   Clear
9:55 PM 78.8 °F - 73.4 °F 83% 30.10 in 10.0 mi Calm Calm - 0.00 in   Clear
10:15 PM 77.0 °F - 73.4 °F 89% 30.10 in 9.0 mi Calm Calm - 0.00 in   Clear
10:35 PM 77.0 °F - 73.4 °F 89% 30.10 in 10.0 mi Calm Calm - 0.00 in   Clear
10:55 PM 75.2 °F - 73.4 °F 94% 30.10 in 10.0 mi Calm Calm - 0.00 in   Clear
11:15 PM 75.2 °F - 71.6 °F 89% 30.09 in 10.0 mi Calm Calm - 0.00 in   Clear
11:35 PM 75.2 °F - 73.4 °F 94% 30.09 in 10.0 mi Calm Calm - 0.00 in   Clear
11:55 PM 73.4 °F - 73.4 °F 100% 30.08 in 10.0 mi Calm Calm - 0.00 in   Clear